Weather History for KCNY - March, 2014

Change the Weather History Date:

Monday, March 3, 2014

  Actual Average Record
Temperature  
Mean Temperature 47 °F 41 °F  
Max Temperature 60 °F 53 °F 75 °F (1986)
Min Temperature 34 °F 28 °F 8 °F (2002)
Degree Days  
Heating Degree Days 18 24  
Month to date heating degree days 53 74  
Since 1 July heating degree days 4801 4483  
Cooling Degree Days 0 0  
Month to date cooling degree days 0 0  
Year to date cooling degree days 0 0  
Moisture  
Dew Point 32 °F    
Average Humidity 57    
Maximum Humidity 82    
Minimum Humidity 31    
Precipitation  
Precipitation 0.00 in 0.03 in 0.60 in (1935)
Month to date precipitation 0.30 0.07  
Year to date precipitation 0.63 1.23  
Sea Level Pressure  
Sea Level Pressure 30.02 in    
Wind  
Wind Speed 3 mph (WNW)    
Max Wind Speed 14 mph    
Max Gust Speed 19 mph    
Visibility 10 miles    
Events      
T = Trace of Precipitation, MM = Missing Value Source: NWS Daily Summary

Daily Weather History Graph

Daily Weather History Graph

Search for Another Location

Airport or City:

Trip Planner

Search our weather history database for the weather conditions in past years. The results will help you decide how hot, cold, wet, or windy it might be!

Date:

Astronomy

Mar. 03, 2014 Rise Set
Actual Time 6:48 AM MST 6:14 PM MST
Civil Twilight 6:21 AM MST 6:40 PM MST
Nautical Twilight 5:50 AM MST 7:11 PM MST
Astronomical Twilight 5:20 AM MST 7:42 PM MST
Moon 8:00 AM MST (3/3) 9:18 PM MST (3/3)
Length of Visible Light 12h 19m
Length of Day
11h 25m
Waxing Crescent, 8% of the Moon is Illuminated
Mar 3
Waxing Crescent
Mar 8
First Quarter
Mar 16
Full
Mar 23
Last Quarter
Mar 30
New

Hourly Weather History & Observations

Time (MST) Temp. Windchill Dew Point Humidity Pressure Visibility Wind Dir Wind Speed Gust Speed Precip Events Conditions
12:53 AM 43.0 °F - 36.0 °F 76% 30.01 in 10.0 mi Calm Calm - N/A   Overcast
1:53 AM 42.1 °F - 33.1 °F 70% 30.00 in 10.0 mi Calm Calm - N/A   Partly Cloudy
2:53 AM 39.0 °F - 34.0 °F 82% 30.01 in 10.0 mi Calm Calm - N/A   Mostly Cloudy
3:53 AM 41.0 °F - 32.0 °F 70% 30.00 in 10.0 mi Calm Calm - N/A   Scattered Clouds
4:53 AM 39.0 °F - 33.1 °F 79% 30.01 in 10.0 mi Calm Calm - N/A   Overcast
5:53 AM 39.0 °F 34.0 °F 30.9 °F 73% 30.04 in 10.0 mi NNE 6.9 mph - N/A   Scattered Clouds
6:53 AM 36.0 °F 33.3 °F 30.9 °F 82% 30.09 in 10.0 mi WSW 3.5 mph - N/A   Clear
7:53 AM 39.0 °F 36.8 °F 33.1 °F 79% 30.11 in 10.0 mi WSW 3.5 mph - N/A   Clear
8:53 AM 45.0 °F 43.5 °F 33.1 °F 63% 30.11 in 10.0 mi ESE 3.5 mph - N/A   Clear
9:53 AM 50.0 °F - 33.1 °F 52% 30.09 in 10.0 mi East 3.5 mph - N/A   Clear
10:53 AM 52.0 °F - 30.9 °F 45% 30.07 in 10.0 mi Calm Calm - N/A   Clear
11:53 AM 55.0 °F - 30.0 °F 38% 30.04 in 10.0 mi Calm Calm - N/A   Clear
12:53 PM 55.9 °F - 30.0 °F 37% 30.01 in 10.0 mi Variable 5.8 mph - N/A   Clear
1:53 PM 57.9 °F - 28.0 °F 32% 30.00 in 10.0 mi West 8.1 mph - N/A   Clear
2:53 PM 57.9 °F - 28.9 °F 33% 30.00 in 10.0 mi West 8.1 mph - N/A   Clear
3:53 PM 57.9 °F - 28.0 °F 32% 29.98 in 10.0 mi NNW 10.4 mph - N/A   Clear
4:53 PM 59.0 °F - 28.0 °F 31% 29.97 in 10.0 mi NW 9.2 mph - N/A   Clear
5:53 PM 55.9 °F - 30.0 °F 37% 29.94 in 10.0 mi East 3.5 mph - N/A   Clear
6:53 PM 50.0 °F - 34.0 °F 54% 30.01 in 10.0 mi NNW 5.8 mph - N/A   Clear
7:53 PM 45.0 °F 43.5 °F 36.0 °F 71% 30.01 in 10.0 mi WSW 3.5 mph - N/A   Clear
8:53 PM 46.0 °F 44.8 °F 33.1 °F 61% 29.99 in 10.0 mi West 3.5 mph - N/A   Clear
9:53 PM 43.0 °F 41.3 °F 33.1 °F 68% 29.99 in 10.0 mi WSW 3.5 mph - N/A   Clear
10:53 PM 41.0 °F - 33.1 °F 73% 29.98 in 10.0 mi Calm Calm - N/A   Clear
11:53 PM 41.0 °F - 33.1 °F 73% 29.96 in 10.0 mi Calm Calm - N/A   Clear